WB0OCV Weather Reports


time (UTC)temp
F
wind
direction
speed
knots
gust
knots
rain 1hr
in
rain 24hr
in
rain mn
in
humidity
%
barometer
mb
20260503224149 53 144 0.9 2.6 0.00 0.23 0.23 45 1009.7
20260503223647 53 57 0.9 2.6 0.00 0.23 0.23 43 1009.6
20260503223143 53 259 0.9 3.5 0.00 0.23 0.23 43 1009.4
20260503222640 53 34 0.9 1.7 0.00 0.23 0.23 43 1009.4
20260503222138 53 231 1.7 2.6 0.00 0.23 0.23 41 1009.6
20260503221636 53 262 0.9 2.6 0.00 0.23 0.23 44 1009.3
20260503221133 53 260 0.9 1.7 0.00 0.23 0.23 43 1009.2
20260503220630 53 129 0.0 2.6 0.00 0.23 0.23 47 1009.2
20260503220126 53 250 5.2 7.0 0.00 0.23 0.23 43 1008.9
20260503215624 54 52 0.9 0.9 0.00 0.23 0.23 45 1008.9
20260503215120 54 236 1.7 2.6 0.00 0.23 0.23 45 1008.8
20260503214619 54 270 1.7 2.6 0.00 0.23 0.23 46 1008.8
20260503214115 54 121 0.0 2.6 0.00 0.23 0.23 46 1008.8
20260503213614 54 72 1.7 1.7 0.00 0.23 0.23 46 1008.9
20260503213110 53 160 0.9 1.7 0.00 0.23 0.23 47 1008.8
20260503212608 53 175 0.9 0.9 0.00 0.23 0.23 47 1008.6
20260503212105 53 4 1.7 2.6 0.00 0.23 0.23 46 1008.5
20260503211602 53 241 2.6 5.2 0.00 0.23 0.23 46 1008.5
20260503211057 53 92 0.9 3.5 0.00 0.23 0.23 46 1008.5
20260503210554 54 11 1.7 2.6 0.00 0.23 0.23 45 1008.4
20260503210050 54 113 0.0 3.5 0.00 0.23 0.23 48 1008.4
20260503205547 54 47 0.0 1.7 0.00 0.23 0.23 47 1008.3
20260503205043 53 352 0.9 1.7 0.00 0.23 0.23 47 1008.4
20260503204540 53 78 0.9 2.6 0.00 0.23 0.23 50 1008.3
20260503204038 53 143 0.0 2.6 0.00 0.23 0.23 49 1008.3
20260503203535 53 131 0.9 2.6 0.00 0.23 0.23 52 1008.2
20260503203032 53 301 1.7 3.5 0.00 0.23 0.23 50 1008.2
20260503202530 53 266 1.7 3.5 0.00 0.23 0.23 49 1008.0
20260503202027 53 52 0.0 2.6 0.00 0.23 0.23 50 1007.8
20260503201525 53 36 1.7 5.2 0.00 0.23 0.23 51 1008.0
20260503201022 54 167 3.5 5.2 0.00 0.23 0.23 47 1007.9
20260503200518 56 169 2.6 5.2 0.00 0.23 0.23 47 1007.8
20260503200015 56 159 1.7 3.5 0.00 0.23 0.23 49 1007.7
20260503195513 55 33 3.5 5.2 0.00 0.23 0.23 48 1007.7
20260503195009 54 129 1.7 3.5 0.00 0.23 0.23 50 1007.7
20260503194507 53 54 3.5 6.1 0.00 0.23 0.23 51 1007.7
20260503194006 53 80 1.7 2.6 0.00 0.23 0.23 52 1007.8
20260503193503 53 63 1.7 3.5 0.00 0.23 0.23 51 1007.9
20260503192958 53 36 1.7 1.7 0.00 0.23 0.23 52 1007.7
20260503192455 54 37 5.2 7.0 0.00 0.23 0.23 50 1007.8
20260503191950 55 273 2.6 3.5 0.00 0.23 0.23 50 1007.6
20260503191448 54 250 1.7 2.6 0.00 0.23 0.23 53 1007.8
20260503190944 54 191 1.7 2.6 0.00 0.23 0.23 51 1007.7
20260503190442 53 229 1.7 2.6 0.00 0.23 0.23 52 1007.8
20260503185939 52 121 2.6 3.5 0.00 0.23 0.23 54 1007.8
20260503185435 52 24 2.6 6.1 0.00 0.23 0.23 52 1007.9
20260503184934 52 260 3.5 3.5 0.00 0.23 0.23 53 1008.0
20260503184431 53 242 1.7 3.5 0.00 0.23 0.23 55 1007.8
20260503183927 54 93 0.0 2.6 0.00 0.23 0.23 53 1008.0
20260503183424 53 80 1.7 3.5 0.00 0.23 0.23 54 1008.0
20260503182921 53 348 4.3 6.1 0.00 0.23 0.23 54 1007.9
20260503182420 53 28 3.5 7.0 0.00 0.23 0.23 55 1007.9
20260503181917 52 17 6.1 8.7 0.00 0.23 0.23 56 1008.1
20260503181414 53 25 4.3 5.2 0.00 0.23 0.23 57 1008.2
20260503180910 55 101 1.7 9.6 0.00 0.23 0.23 58 1007.8
20260503180408 53 176 5.2 9.6 0.00 0.23 0.23 58 1007.8
20260503175904 53 228 2.6 3.5 0.00 0.23 0.23 61 1007.8
20260503175403 53 304 1.7 3.5 0.00 0.23 0.23 62 1007.6
20260503174858 54 143 0.9 8.7 0.00 0.23 0.23 60 1007.6
20260503174356 55 95 3.5 6.1 0.00 0.23 0.23 58 1007.7
20260503173851 53 82 0.9 7.0 0.00 0.23 0.23 65 1007.6
20260503173348 53 166 2.6 5.2 0.00 0.23 0.23 66 1007.4
20260503172844 53 241 4.3 7.0 0.00 0.23 0.23 66 1007.6
20260503172342 52 28 1.7 7.8 0.00 0.23 0.23 66 1007.5
20260503171838 52 83 1.7 5.2 0.00 0.23 0.23 68 1007.4
20260503171335 52 164 2.6 6.1 0.00 0.23 0.23 68 1007.6
20260503170832 51 26 3.5 6.1 0.00 0.23 0.23 69 1007.4
20260503170328 51 270 1.7 7.0 0.00 0.23 0.23 68 1007.5
20260503150721 53 57 1.7 6.1 0.00 0.23 0.23 64 1006.8
20260503150217 52 285 1.7 3.5 0.00 0.23 0.23 69 1006.7
20260503140141 52 204 1.7 2.6 0.00 0.23 0.23 69 1007.0
20260503131111 48 85 0.0 5.2 0.00 0.23 0.23 83 1007.2
20260503130609 48 32 4.3 7.0 0.00 0.23 0.23 81 1007.1
20260503130106 47 173 0.9 3.5 0.00 0.23 0.23 84 1007.1
20260503110458 44 264 0.9 1.7 0.00 0.23 0.23 96 1007.7
20260503090344 45 46 0.0 1.7 0.05 0.22 0.22 96 1008.2
20260503081312 45 124 0.0 1.7 0.00 0.20 0.20 98 1008.8
20260503080808 46 140 0.0 0.9 0.00 0.20 0.20 98 1008.9
20260503080305 46 39 1.7 1.7 0.00 0.20 0.20 98 1008.7
20260503072742 48 129 0.0 1.7 0.00 0.19 0.19 99 1009.2
20260503072238 48 24 0.9 0.9 0.00 0.19 0.19 99 1009.0
20260503071735 48 131 0.0 0.0 0.00 0.19 0.19 99 1009.3
20260503071232 48 50 0.9 2.6 0.05 0.19 0.19 99 1009.3
20260503070728 48 79 0.9 0.9 0.05 0.19 0.19 99 1009.4
20260503070226 48 71 0.0 0.0 0.00 0.18 0.18 99 1009.2
20260503060157 48 84 0.0 0.0 0.07 0.12 0.12 99 1010.3
20260503054644 48 96 0.0 0.0 0.07 0.10 0.10 99 1010.3
20260503054141 48 77 0.0 0.0 0.05 0.09 0.09 99 1010.5
20260503053639 48 119 0.0 0.0 0.12 0.09 0.09 99 1010.5
20260503053138 48 115 0.0 0.0 0.14 0.08 0.08 99 1010.8
20260503052633 48 117 0.0 0.0 0.07 0.07 0.07 99 1010.5
20260503052130 48 120 0.0 0.0 0.05 0.06 0.06 99 1010.6
20260503051625 48 106 0.0 0.0 0.05 0.06 0.06 99 1010.6
20260503051123 48 137 0.0 0.0 0.00 0.05 0.05 99 1010.9
20260503050620 48 137 0.0 0.0 0.07 0.05 0.05 99 1011.0
20260503050116 48 137 0.0 0.0 0.00 0.04 0.04 99 1011.0
20260503045614 48 137 0.0 0.0 0.00 0.04 0.04 99 1011.3
20260503045111 48 137 0.0 0.0 0.05 0.04 0.04 99 1011.2
20260503044607 48 142 0.0 0.0 0.05 0.04 0.04 99 1011.4
20260503044105 48 135 0.0 0.0 0.00 0.03 0.03 99 1011.3
20260503043601 48 134 0.0 0.0 0.07 0.03 0.03 99 1011.2
20260503043058 48 135 0.0 0.0 0.12 0.03 0.03 99 1011.4
20260503042555 48 135 0.0 0.0 0.05 0.02 0.02 99 1011.4
20260503042051 48 135 0.0 0.0 0.00 0.01 0.01 99 1011.5
20260503041548 48 136 0.0 0.0 0.07 0.01 0.01 99 1011.6
20260503041046 48 80 0.0 0.0 0.07 0.01 0.01 99 1011.6
20260503040543 48 80 0.0 0.0 0.05 0.00 0.00 99 1011.7
20260503040040 48 80 0.0 0.0 0.12 0.41 0.41 99 1011.6
20260503035537 48 80 0.0 0.0 0.12 0.40 0.40 99 1011.7
20260503035034 48 79 0.0 0.0 0.12 0.39 0.39 99 1011.7
20260503034531 49 78 0.0 0.0 0.12 0.38 0.38 99 1011.6
20260503034028 49 61 0.0 0.0 0.12 0.37 0.37 99 1011.8
20260503033526 49 93 0.0 0.0 0.07 0.36 0.36 99 1011.9
20260503033023 49 93 0.0 0.0 0.07 0.35 0.35 99 1011.9
20260503032522 49 93 0.0 0.0 0.12 0.35 0.35 99 1011.7
20260503032019 49 93 0.0 0.0 0.12 0.34 0.34 99 1011.9
20260503031517 49 93 0.0 0.0 0.12 0.33 0.33 99 1012.0
20260503031014 49 91 0.0 0.0 0.05 0.32 0.32 99 1011.7
20260503030510 49 127 0.0 0.0 0.07 0.31 0.31 99 1011.9
20260503030007 49 94 0.0 0.0 0.05 0.30 0.30 99 1011.9
20260503025503 49 109 0.0 0.0 0.12 0.30 0.30 99 1011.9
20260503025001 49 59 0.9 0.9 0.12 0.29 0.29 99 1011.8
20260503024457 49 95 0.0 0.0 0.05 0.28 0.28 99 1012.1
20260503023955 49 96 0.0 0.0 0.00 0.27 0.27 99 1012.3
20260503023451 49 95 0.0 0.0 0.00 0.27 0.27 99 1012.2
20260503022949 49 97 0.0 0.0 0.07 0.27 0.27 99 1012.3
20260503022444 49 97 0.0 0.0 0.07 0.27 0.27 99 1012.6
20260503021940 49 96 0.0 0.0 0.05 0.26 0.26 99 1012.5
20260503021436 49 97 0.0 0.0 0.05 0.26 0.26 99 1012.6
20260503020934 49 96 0.0 0.0 0.07 0.25 0.25 99 1012.6
20260503020432 49 96 0.0 0.0 0.07 0.24 0.24 99 1012.8
20260503015927 49 105 0.0 0.0 0.12 0.24 0.24 99 1012.8
20260503015424 49 105 0.0 0.0 0.17 0.23 0.23 99 1013.0
20260503014920 49 105 0.0 0.0 0.19 0.22 0.22 99 1013.0
20260503014418 49 104 0.0 0.0 0.19 0.20 0.20 99 1012.9
20260503013916 49 105 0.0 0.0 0.17 0.19 0.19 99 1013.0
20260503013412 49 104 0.0 0.0 0.12 0.17 0.17 99 1013.2
20260503012909 49 106 0.0 0.0 0.19 0.16 0.16 99 1012.9
20260503012408 49 105 0.0 0.0 0.12 0.14 0.14 99 1012.9
20260503011903 49 105 0.0 0.0 0.12 0.13 0.13 98 1013.0
20260503011400 49 106 0.0 0.0 0.14 0.12 0.12 98 1013.0
20260503010857 49 106 0.0 0.0 0.12 0.11 0.11 98 1012.8
20260503010354 49 106 0.0 0.0 0.12 0.10 0.10 98 1013.0
20260503005851 49 106 0.0 0.0 0.07 0.09 0.09 98 1012.7
20260503005349 49 106 0.0 0.0 0.05 0.08 0.08 98 1013.0
20260503004844 49 107 0.0 0.0 0.12 0.08 0.08 98 1013.0
20260503004342 49 107 0.0 0.0 0.12 0.07 0.07 98 1012.9
20260503003839 49 107 0.0 0.0 0.12 0.06 0.06 98 1013.1
20260503003336 49 113 0.0 0.0 0.12 0.05 0.05 98 1013.0
20260503002833 49 107 0.0 0.0 0.05 0.04 0.04 98 1013.1
20260503002330 49 107 0.0 0.0 0.00 0.03 0.03 98 1013.0
20260503001827 49 106 0.0 0.0 0.00 0.03 0.03 97 1013.0
20260503001323 49 106 0.0 0.0 0.00 0.03 0.03 97 1012.9
20260503000820 49 106 0.0 0.0 0.00 0.03 0.03 97 1013.0
20260503000319 49 106 0.0 0.0 0.07 0.03 0.03 97 1012.9
20260502235815 49 106 0.0 0.0 0.07 0.03 0.03 97 1012.9
20260502235312 49 106 0.0 0.0 0.05 0.02 0.02 96 1012.9
20260502234809 49 106 0.0 0.0 0.05 0.02 0.02 96 1012.9
20260502234306 49 106 0.0 0.0 0.00 0.01 0.01 96 1012.9
20260502233802 50 106 0.0 0.0 0.07 0.01 0.01 95 1013.0
20260502233258 50 107 0.0 0.0 0.07 0.01 0.01 95 1013.0
20260502232755 50 81 0.0 0.0 0.00 0.00 0.00 94 1012.9
20260502232252 50 65 0.9 0.9 0.00 0.00 0.00 94 1013.1
20260502231748 50 118 0.0 0.0 0.00 0.00 0.00 92 1013.1
20260502231246 50 120 0.0 0.0 0.00 0.00 0.00 90 1012.7
20260502230744 51 130 0.0 0.0 0.00 0.00 0.00 89 1013.1
20260502230242 51 122 0.0 0.9 0.00 0.00 0.00 86 1012.9
20260502225739 51 176 0.9 2.6 0.00 0.00 0.00 83 1013.0
20260502225236 51 118 0.0 0.9 0.00 0.00 0.00 83 1012.9
20260502224732 51 125 0.0 0.0 0.00 0.00 0.00 83 1012.9
20260502224229 52 104 0.0 0.0 0.00 0.00 0.00 83 1012.8